Weather Roundup
Issued by NWS

Home | Current Version | Previous Version | Graphics & Text | Print | Product List | Glossary Off
Versions: 1 2 3 4 5 6 7 8 9 10 11 12 13 14 15 16 17 18 19 20 21 22 23 24 25 26 27 28 29 30 31 32 33 34 35 36 37 38 39 40 41 42 43 44 45 46 47 48 49 50

000
NZUS93 KARX 061010
HRRWXR

CURRENT HOURLY OBSERVATIONS ACROSS
MUCH OF THE UPPER MISSISSIPPI VALLEY
NATIONAL WEATHER SERVICE LA CROSSE WI
400 AM CST FRI MAR 06 2015


...SOUTHEAST MINNESOTA...


CITY           SKY/WX    TMP DP  RH WIND       PRES   REMARKS
ROCHESTER      MOCLDY     7  -2  66 S20G28    30.16F WCI -13
ROCHESTER/MAYO CLOUDY    10  -2  59 SE12G23   30.17F WCI  -5
WINONA         CLOUDY    10   1  67 SE5       30.26F WCI   2
AUSTIN         PTCLDY     7   0  72 S13G18    30.17F WCI  -9
ALBERT LEA     CLEAR     10   1  67 S13G20    30.14F WCI  -5
DODGE CENTER   PTCLDY     9   1  72 S18       30.13F WCI -10
PRESTON        CLOUDY     4  -2  73 S17       30.20F WCI -15
OWATONNA       CLEAR      9   0  66 S16G23    30.13F WCI  -9
FARIBAULT      CLEAR      7   0  72 S9        30.15F WCI  -7
$$

...ELSEWHERE IN MINNESOTA...


CITY           SKY/WX    TMP DP  RH WIND       PRES   REMARKS
MINNEAPOLIS    PTCLDY    11   0  61 SE7       30.14F WCI   0
INTNL FALLS    CLEAR      9   1  70 SW6       29.87F WCI  -1
DULUTH         CLOUDY     9   0  67 SW18      29.97F WCI -10
RED WING       CLOUDY    10   0  61 SE3       30.18F
REDWOOD FALLS  FAIR      17   9  70 S6        30.07F WCI   9
MANKATO        CLEAR     14   1  57 S13       30.12F WCI   0
FAIRMONT       CLEAR     16   5  62 S15       30.11F WCI   1
$$

...SOUTHWEST WISCONSIN...


CITY           SKY/WX    TMP DP  RH WIND       PRES   REMARKS
LA CROSSE      CLEAR      4  -4  69 S10       30.30F WCI -11
PRAIRIE DU CHI PTCLDY    -3  -9  77 CALM      30.36F
BOSCOBEL       CLEAR    -10 -16  74 CALM      30.37F
LONE ROCK      PTCLDY    -3 -10  72 NE3       30.37F
PLATTEVILLE    CLEAR      1  -6  75 SE10      30.35F WCI -16
FORT MC COY    CLEAR      2  -4  73 S3        30.30F
CAMP DOUGLAS   PTCLDY     4  -3  74 S10       30.28F WCI -11
VIROQUA        FAIR       1  -4  77 S9        30.26F WCI -14
WIS DELLS      PTCLDY     1  -6  71 CALM      30.31F
$$

...ELSEWHERE IN WISCONSIN...


CITY           SKY/WX    TMP DP  RH WIND       PRES   REMARKS
MILWAUKEE      MOCLDY     1  -8  66 SW7       30.41F WCI -12
MADISON        PTCLDY     1  -7  68 S10       30.36F WCI -15
GREEN BAY      PTCLDY     1  -6  72 SW6       30.33F WCI -10
EAU CLAIRE     CLOUDY     4  -3  73 S9        30.19F WCI -10
BLACK RVR FLS  FAIR     -10 -16  75 CALM      30.28F
MEDFORD        PTCLDY     0  -5  78 S8        30.17F WCI -14
WAUSAU         MOCLDY    -2  -7  79 SE5       30.22F WCI -12
WIS RAPIDS     MOCLDY    -4 -11  72 S5        30.28F WCI -15
MARSHFIELD     MOCLDY    -3  -8  79 S3        30.22F
RICE LAKE      CLOUDY     5  -1  76 SE8       30.16F WCI  -8
$$

...NORTHEAST IOWA...


CITY           SKY/WX    TMP DP  RH WIND       PRES   REMARKS
DECORAH        PTCLDY     7  -2  66 S12       30.25F WCI  -9
MASON CITY     CLOUDY     7   1  76 S14       30.19F WCI -10
CHARLES CITY   CLOUDY     7   0  72 S15       30.24F WCI -11
OELWEIN        PTCLDY     3  -4  72 S14       30.29F WCI -15
$$

...ELSEWHERE IN IOWA...


CITY           SKY/WX    TMP DP  RH WIND       PRES   REMARKS
DES MOINES     MOCLDY    22  10  60 S16       30.25F WCI   8
IOWA CITY      CLEAR      4  -1  80 S3        30.41F
FORT DODGE     FAIR      18   7  62 S13       30.18F WCI   4
$$

...NORTHERN ILLINOIS...


CITY           SKY/WX    TMP DP  RH WIND       PRES   REMARKS
CHICAGO-OHARE  PTCLDY     3  -4  72 SW6       30.46F WCI  -8
CHICAGO-MIDWAY PTCLDY     6  -2  69 SW7       30.49S WCI  -6
MOLINE         PTCLDY     6  -3  66 CALM      30.43F
ROCKFORD       MOCLDY    -2  -8  76 S7        30.44F WCI -15
PEORIA         CLEAR      6  -1  73 S8        30.49F WCI  -7
$$

NOTE: "FAIR" INDICATES FEW OR NO CLOUDS BELOW 12,000 FEET WITH NO
SIGNIFICANT WEATHER AND/OR OBSTRUCTIONS TO VISIBILITY. WIND
SPEEDS ARE IN MILES-PER-HOUR.



USA.gov is the U.S. government's official web portal to all federal, state and local government web resources and services.